GW2141 Weather Reports


Display with metric or nautical units.
time (UTC)temp
F
wind
direction
speed
MPH
gust
MPH
rain 1hr
in
rain 24hr
in
rain mn
in
humidity
%
barometer
mb
20260504140514 61 155 6.0 9.0 0.00 0.00 0.00 48 1016.1
20260504130713 59 170 7.0 11.0 0.00 0.00 0.00 54 1016.5
20260504081313 55 174 6.0 8.0 0.00 0.00 0.00 72 1017.1
20260504080413 55 156 4.0 7.0 0.00 0.00 0.00 74 1017.2
20260504045913 49 180 0.0 0.0 0.00 0.00 0.00 75 1017.4
20260504044928 50 180 0.0 0.0 0.00 0.00 0.00 74 1017.4
20260504043913 50 180 0.0 0.0 0.00 0.00 0.00 74 1017.5
20260504042913 50 180 0.0 1.0 0.00 0.00 0.00 76 1017.4
20260504041913 49 180 0.0 1.0 0.00 0.00 0.00 76 1017.3
20260504041012 49 180 0.0 1.0 0.00 0.00 0.00 76 1017.2
20260504040030 49 180 0.0 0.0 0.00 0.00 0.00 75 1017.0
20260504035023 50 180 0.0 0.0 0.00 0.00 0.00 74 1017.1
20260504034025 49 180 0.0 0.0 0.00 0.00 0.00 78 1016.9
20260504033122 49 180 0.0 0.0 0.00 0.00 0.00 79 1016.8
20260504032222 49 180 0.0 0.0 0.00 0.00 0.00 75 1016.8
20260504031223 49 180 0.0 0.0 0.00 0.00 0.00 75 1016.8
20260504030223 49 180 0.0 0.0 0.00 0.00 0.00 74 1016.8
20260504025322 49 180 0.0 0.0 0.00 0.00 0.00 73 1016.7
20260504024324 49 180 0.0 0.0 0.00 0.00 0.00 72 1016.7
20260504023324 49 180 0.0 0.0 0.00 0.00 0.00 72 1016.7
20260504021323 49 180 0.0 0.0 0.00 0.00 0.00 68 1016.8
20260504020422 49 180 0.0 0.0 0.00 0.00 0.00 65 1016.9
20260504015424 50 180 0.0 0.0 0.00 0.00 0.00 65 1016.7
20260504014438 50 180 0.0 0.0 0.00 0.00 0.00 61 1016.7
20260504012423 51 180 0.0 0.0 0.00 0.00 0.00 63 1016.4
20260504011521 51 180 0.0 1.0 0.00 0.00 0.00 66 1016.4
20260504005540 52 180 0.0 0.0 0.00 0.00 0.00 63 1016.3
20260504004523 52 180 0.0 0.0 0.00 0.00 0.00 58 1016.2
20260504000523 55 180 0.0 0.0 0.00 0.00 0.00 50 1016.0
20260503235622 56 180 0.0 0.0 0.00 0.00 0.00 46 1015.8
20260503233622 58 180 0.0 0.0 0.00 0.00 0.00 40 1015.5
20260503232623 59 180 0.0 0.0 0.00 0.00 0.00 37 1015.7
20260503231623 60 122 0.0 3.0 0.00 0.00 0.00 35 1015.8
20260503230622 60 180 0.0 0.0 0.00 0.00 0.00 33 1015.7
20260503224722 61 162 2.0 5.0 0.00 0.00 0.00 32 1015.7
20260503223722 62 305 0.0 1.0 0.00 0.00 0.00 32 1015.6
20260503222721 63 337 1.0 3.0 0.00 0.00 0.00 29 1015.6
20260503221725 63 90 1.0 3.0 0.00 0.00 0.00 30 1015.6
20260503220723 64 186 4.0 8.0 0.00 0.00 0.00 31 1015.6
20260503215722 64 140 2.0 4.0 0.00 0.00 0.00 31 1015.7
20260503214724 63 50 0.0 0.0 0.00 0.00 0.00 32 1015.6
20260503213723 63 186 2.0 4.0 0.00 0.00 0.00 32 1015.7
20260503212740 62 38 4.0 6.0 0.00 0.00 0.00 32 1015.7
20260503211824 61 223 2.0 7.0 0.00 0.00 0.00 32 1015.8
20260503210823 62 202 5.0 9.0 0.00 0.00 0.00 33 1015.6
20260503205823 62 183 5.0 12.0 0.00 0.00 0.00 32 1015.7
20260503204823 62 181 7.0 10.0 0.00 0.00 0.00 32 1015.9
20260503203822 61 161 4.0 7.0 0.00 0.00 0.00 32 1015.7
20260503202822 61 153 4.0 8.0 0.00 0.00 0.00 33 1016.0
20260503201823 60 340 6.0 12.0 0.00 0.00 0.00 33 1016.1
20260503200922 60 129 3.0 11.0 0.00 0.00 0.00 33 1016.2
20260503195922 60 163 4.0 7.0 0.00 0.00 0.00 33 1016.4
20260503193923 59 356 7.0 12.0 0.00 0.00 0.00 32 1016.5
20260503193021 59 265 3.0 4.0 0.00 0.00 0.00 33 1016.7
20260503190022 58 3 1.0 4.0 0.00 0.00 0.00 34 1016.8
20260503185023 58 17 4.0 11.0 0.00 0.00 0.00 34 1016.8
20260503184024 57 136 2.0 4.0 0.00 0.00 0.00 34 1016.9
20260503183024 57 355 5.0 8.0 0.00 0.00 0.00 34 1017.2
20260503182121 56 47 2.0 6.0 0.00 0.00 0.00 34 1017.0
20260503181123 56 65 3.0 5.0 0.00 0.00 0.00 34 1017.2
20260503180121 56 294 5.0 13.0 0.00 0.00 0.00 34 1017.0
20260503175124 56 26 7.0 12.0 0.00 0.00 0.00 35 1017.4
20260503174024 55 24 5.0 8.0 0.00 0.00 0.00 34 1017.3
20260503173120 55 290 1.0 5.0 0.00 0.00 0.00 33 1017.4
20260503171221 55 6 5.0 8.0 0.00 0.00 0.00 35 1017.4
20260503170222 55 128 2.0 4.0 0.00 0.00 0.00 36 1017.6
20260503150422 53 8 3.0 8.0 0.00 0.00 0.00 39 1018.0